Tracking 20942 objects as of 13-Jul-2020
HD Live streaming from Space Station
objects crossing your sky now

THOR ABLESTAR DEB

Track THOR ABLESTAR DEB now!
10-day predictions


NORAD ID: 541
Int'l Code: 1961-015GA
Perigee: 899.8 km
Apogee: 1,008.1 km
Inclination: 67.2 °
Period: 104.0 minutes
Semi major axis: 7324 km
RCS: 0.0369 m2 (small)
Launch date: June 29, 1961
Source: United States (US)
Launch site: AIR FORCE EASTERN TEST RANGE (AFETR)

Note: This is SATELLITE DEBRIS
aabbcc
Your satellite tracking list
Your tracking list is empty




NASA's NSSDC Master Catalog

Two Line Element Set (TLE):
1   541U 61015GA  20195.17415252  .00000016  00000-0  76752-4 0  9995
2   541  67.2185 152.6548 0073954 151.6521 208.8613 13.84824824972809
Source of the keplerian elements: AFSPC